Date String (YYYY-MM-DD hh:mm:ss) UTC,Instrument flags,absolute air pressure of the measurement (hPa),sample flow rate (lpm),inlet stack bypass flow (lpm),air temperature of the measurement (°C),ambient temperature measured by the external sensor (°C),aerosol sample conditioner tube jacket temperature (°C),OPC LED temperature (°C),internal box temperature (°C),relative humidity of the measurement (%),span deviation,mass concentration of particles derived from Lorenz-Mie calculation of OPC scattering (μg/m³),mass concentration of particles derived from Lorenz-Mie calculation of OPC scattering (μg/m³),mass concentration of particles derived from Lorenz-Mie calculation of OPC scattering (μg/m³)
DateTimeUTC,F1_M11,P_M11,Q1_M11,Q2_M11,T1_M11,T2_M11,T3_M11,T4_M11,T5_M11,U1_M11,ZSPAN_M11,X0_M11,X2_M11,X1_M11
2023-11-06 02:00:00,SystemResetWarning,0825.6,5.00,000.00,027.8,027.0,000.0,035.9,029.4,9.1,0000.0,0006.15,0002.45,0002.08
2023-11-06 02:01:00,SystemResetWarning,0825.6,5.00,000.00,027.8,027.1,000.0,035.9,029.4,9.0,0000.0,0006.07,0002.39,0002.06
2023-11-06 02:02:00,SystemResetWarning,0825.6,5.01,000.00,027.8,027.1,000.0,036.0,029.5,9.0,0000.0,0007.10,0002.31,0002.03
2023-11-06 02:03:00,SystemResetWarning,0825.7,4.99,000.00,027.9,027.2,000.0,036.0,029.5,9.0,0000.0,0006.56,0002.34,0002.02
2023-11-06 02:04:00,SystemResetWarning,0825.8,5.00,000.00,027.9,027.2,000.0,036.0,029.5,9.2,0000.0,0007.05,0002.36,0002.03
2023-11-06 02:05:00,SystemResetWarning,0825.8,5.00,000.00,027.9,027.2,000.0,036.0,029.5,9.1,0000.0,0007.56,0002.42,0002.04
2023-11-06 02:06:00,SystemResetWarning,0825.8,5.00,000.00,028.0,027.3,000.0,036.1,029.6,9.0,0000.0,0007.67,0002.43,0002.04
2023-11-06 02:07:00,SystemResetWarning,0825.7,5.00,000.00,028.0,027.3,000.0,036.1,029.6,9.0,0000.0,0007.05,0002.42,0002.03
2023-11-06 02:08:00,SystemResetWarning,0825.7,5.01,000.00,028.0,027.3,000.0,036.1,029.6,9.0,0000.0,0006.94,0002.36,0001.99
2023-11-06 02:09:00,SystemResetWarning,0825.8,4.98,000.00,028.0,026.7,000.0,036.1,029.6,9.0,0000.0,0006.88,0002.32,0001.96
2023-11-06 02:10:00,SystemResetWarning,0825.8,4.99,000.00,028.0,024.7,000.0,036.1,029.4,9.1,0000.0,0006.58,0002.27,0001.91
2023-11-06 02:11:00,SystemResetWarning,0825.9,5.01,000.00,027.9,024.1,000.0,036.1,029.1,9.1,0000.0,0005.65,0002.25,0001.89
2023-11-06 02:12:00,SystemResetWarning,0825.9,5.01,000.00,027.7,024.3,000.0,036.0,028.7,9.2,0000.0,0005.68,0002.27,0001.89
2023-11-06 02:13:00,SystemResetWarning,0825.8,4.99,000.00,027.6,024.7,000.0,036.0,028.7,9.3,0000.0,0004.65,0002.27,0001.88
2023-11-06 02:14:00,SystemResetWarning,0825.8,5.00,000.00,027.6,025.1,000.0,036.0,028.8,9.3,0000.0,0004.30,0002.24,0001.87
2023-11-06 02:15:00,SystemResetWarning,0825.8,5.01,000.00,027.6,025.5,000.0,036.0,028.9,9.4,0000.0,0003.90,0002.22,0001.86
2023-11-06 02:16:00,SystemResetWarning,0825.7,5.01,000.00,027.6,025.8,000.0,035.9,029.0,9.4,0000.0,0003.13,0002.16,0001.84
2023-11-06 02:17:00,SystemResetWarning,0825.8,5.00,000.00,027.6,026.0,000.0,035.9,029.0,9.3,0000.0,0002.75,0002.13,0001.85
2023-11-06 02:18:00,SystemResetWarning,0825.8,4.99,000.00,027.6,026.2,000.0,035.9,029.1,9.3,0000.0,0002.76,0002.14,0001.85
2023-11-06 02:19:00,SystemResetWarning,0825.8,5.00,000.00,027.6,026.4,000.0,035.9,029.1,9.3,0000.0,0002.80,0002.16,0001.86
2023-11-06 02:20:00,SystemResetWarning,0825.7,5.00,000.00,027.6,026.5,000.0,035.9,029.2,9.3,0000.0,0002.76,0002.16,0001.86
2023-11-06 02:21:00,SystemResetWarning,0825.6,5.00,000.00,027.6,026.6,000.0,035.9,029.2,9.2,0000.0,0002.73,0002.17,0001.87
2023-11-06 02:22:00,SystemResetWarning,0825.6,5.00,000.00,027.7,026.7,000.0,035.9,029.2,9.2,0000.0,0002.76,0002.18,0001.87
2023-11-06 02:23:00,SystemResetWarning,0825.6,5.00,000.00,027.7,026.7,000.0,035.9,029.2,9.1,0000.0,0002.75,0002.16,0001.87
2023-11-06 02:24:00,SystemResetWarning,0825.4,5.00,000.00,027.7,026.8,000.0,036.0,029.3,9.3,0000.0,0002.73,0002.15,0001.88
2023-11-06 02:25:00,SystemResetWarning,0825.4,5.00,000.00,027.7,026.9,000.0,036.0,029.3,9.4,0000.0,0002.71,0002.15,0001.88
2023-11-06 02:26:00,SystemResetWarning,0825.5,5.00,000.00,027.8,026.9,000.0,036.0,029.3,9.3,0000.0,0002.64,0002.12,0001.88
2023-11-06 02:27:00,SystemResetWarning,0825.6,5.00,000.00,027.8,027.0,000.0,036.0,029.4,9.2,0000.0,0002.56,0002.09,0001.88
2023-11-06 02:28:00,SystemResetWarning,0825.6,5.00,000.00,027.8,027.0,000.0,036.0,029.4,8.8,0000.0,0002.50,0002.07,0001.87
2023-11-06 02:29:00,SystemResetWarning,0825.8,5.00,000.00,027.8,027.0,000.0,036.0,029.4,8.9,0000.0,0002.53,0002.08,0001.87
2023-11-06 02:30:00,SystemResetWarning,0825.7,5.00,000.00,027.9,027.0,000.0,036.1,029.4,9.2,0000.0,0002.54,0002.09,0001.87
2023-11-06 02:31:00,SystemResetWarning,0825.7,4.99,000.00,027.9,027.0,000.0,036.1,029.4,9.1,0000.0,0002.62,0002.12,0001.87
2023-11-06 02:32:00,SystemResetWarning,0825.7,5.00,000.00,027.9,027.1,000.0,036.1,029.4,9.1,0000.0,0002.65,0002.13,0001.88
2023-11-06 02:33:00,SystemResetWarning,0825.8,4.99,000.00,027.9,027.1,000.0,036.1,029.5,9.1,0000.0,0002.60,0002.12,0001.89
2023-11-06 02:34:00,SystemResetWarning,0825.9,5.00,000.00,027.9,027.2,000.0,036.1,029.5,9.1,0000.0,0002.55,0002.11,0001.89
2023-11-06 02:35:00,SystemResetWarning,0825.7,5.00,000.00,028.0,027.2,000.0,036.2,029.5,9.1,0000.0,0002.52,0002.09,0001.88
2023-11-06 02:36:00,SystemResetWarning,0825.7,5.00,000.00,028.0,027.2,000.0,036.2,029.5,8.8,0000.0,0002.43,0002.06,0001.88
2023-11-06 02:37:00,SystemResetWarning,0825.7,5.01,000.00,028.0,027.3,000.0,036.2,029.6,8.8,0000.0,0002.54,0002.08,0001.89
2023-11-06 02:38:00,SystemResetWarning,0825.6,5.00,000.00,028.0,027.3,000.0,036.2,029.6,8.7,0000.0,0003.28,0002.13,0001.90
2023-11-06 02:39:00,SystemResetWarning,0825.6,5.00,000.00,028.1,027.3,000.0,036.2,029.6,8.6,0000.0,0003.34,0002.20,0001.96
2023-11-06 02:40:00,SystemResetWarning,0825.6,5.00,000.00,028.1,027.3,000.0,036.3,029.6,8.9,0000.0,0003.46,0002.26,0002.01
2023-11-06 02:41:00,SystemResetWarning,0825.7,4.99,000.00,028.1,027.3,000.0,036.3,029.6,8.8,0000.0,0003.60,0002.31,0002.05
2023-11-06 02:42:00,SystemResetWarning,0825.8,4.99,000.00,028.1,026.7,000.0,036.3,029.6,8.8,0000.0,0003.55,0002.31,0002.08
2023-11-06 02:43:00,SystemResetWarning,0825.8,5.00,000.00,028.0,024.4,000.0,036.2,029.3,8.6,0000.0,0004.27,0002.36,0002.13
2023-11-06 02:44:00,SystemResetWarning,0825.8,5.00,000.00,027.9,023.0,000.0,036.2,029.0,8.7,0000.0,0006.51,0002.40,0002.16
2023-11-06 02:45:00,SystemResetWarning,0825.7,5.01,000.00,027.7,023.2,000.0,036.1,028.6,8.8,0000.0,0006.84,0002.48,0002.20
2023-11-06 02:46:00,SystemResetWarning,0825.7,5.01,000.00,027.5,023.7,000.0,036.0,028.4,9.0,0000.0,0007.02,0002.57,0002.25
2023-11-06 02:47:00,SystemResetWarning,0825.8,5.00,000.00,027.4,024.2,000.0,036.0,028.4,9.1,0000.0,0007.12,0002.63,0002.28
2023-11-06 02:48:00,SystemResetWarning,0825.8,5.00,000.00,027.4,024.6,000.0,035.9,028.5,9.1,0000.0,0007.16,0002.66,0002.31
2023-11-06 02:49:00,SystemResetWarning,0825.8,5.00,000.00,027.4,025.0,000.0,035.9,028.6,9.3,0000.0,0007.51,0002.67,0002.33
2023-11-06 02:50:00,SystemResetWarning,0825.8,4.99,000.00,027.4,025.3,000.0,035.9,028.7,9.2,0000.0,0007.62,0002.71,0002.31
2023-11-06 02:51:00,SystemResetWarning,0825.8,4.99,000.00,027.4,025.6,000.0,035.9,028.8,9.3,0000.0,0007.58,0002.67,0002.28
2023-11-06 02:52:00,SystemResetWarning,0825.8,5.00,000.00,027.4,025.8,000.0,035.8,028.8,9.4,0000.0,0007.55,0002.65,0002.26
2023-11-06 02:53:00,SystemResetWarning,0825.7,5.00,000.00,027.4,026.0,000.0,035.8,028.9,9.5,0000.0,0007.58,0002.67,0002.26
2023-11-06 02:54:00,SystemResetWarning,0825.6,5.01,000.00,027.4,026.2,000.0,035.8,028.9,9.5,0000.0,0007.03,0002.65,0002.24
2023-11-06 02:55:00,SystemResetWarning,0825.6,5.00,000.00,027.5,026.3,000.0,035.8,029.0,9.3,0000.0,0005.22,0002.69,0002.22
2023-11-06 02:56:00,SystemResetWarning,0825.6,5.01,000.00,027.5,026.4,000.0,035.8,029.0,9.2,0000.0,0005.02,0002.68,0002.21
2023-11-06 02:57:00,SystemResetWarning,0825.6,5.00,000.00,027.5,026.5,000.0,035.8,029.1,9.1,0000.0,0004.89,0002.63,0002.21
2023-11-06 02:58:00,SystemResetWarning,0825.7,4.99,000.00,027.6,026.6,000.0,035.8,029.1,9.0,0000.0,0004.84,0002.61,0002.21
2023-11-06 02:59:00,SystemResetWarning,0825.7,4.99,000.00,027.6,026.7,000.0,035.8,029.2,9.1,0000.0,0005.06,0002.63,0002.21
